Location: De Har
(53.3413°N, 6.6858°E)
Time: 17:07:15
(UTC+00:00)

Cosmos 2360 Rocket - Pass Details

Date: 22 April 2026
Orbit: 831 x 845 km, 71.0° (Epoch: 9 May)

Event Time Altitude Azimuth Distance (km) Brightness Sun altitude
Rises 00:42:52 0° 328° (NNW) 3,414 5.9 -22.8°
Reaches altitude 10° 00:45:26 10° 335° (NNW) 2,477 5.2 -22.7°
Maximum altitude 00:50:53 45° 48° (NE) 1,136 3.2 -22.4°
Drops below altitude 10° 00:56:19 10° 121° (ESE) 2,467 4.5 -22.1°
Sets 00:58:52 0° 127° (SE) 3,398 5.2 -21.9°
